Hourly Data Report for August 13, 2022

TORONTO CITY
ONTARIO
Current Station Operator: ECCC - MSC

43°40'00.000" N
79°24'00.000" W
112.50 m
6158355
71508
XTO

Download Data

Hourly Data (August 2022)
Hourly Data Report for August 13, 2022
TIME
LST
Temp Definition
°C
Dew Point Definition
°C
Rel Hum Definition
%
Precip. Amount Definition
mm

Wind Dir Definition
10's deg

Wind Spd Definition
km/h
Visibility Definition
km
Stn Press Definition
kPa
Hmdx Definition


Wind Chill Definition


Weather Definition


00:00 16.5 5.7 49 0.0       100.80     LegendNANA
01:00 16.9 6.5 50 0.0       100.79     LegendNANA
02:00 15.2 7.9 62 0.0       100.79     LegendNANA
03:00 14.9 7.5 61 0.0       100.79     LegendNANA
04:00 15.1 7.2 59 0.0       100.77     LegendNANA
05:00 14.3 7.7 64 0.0       100.77     LegendNANA
06:00 14.0 8.0 67 0.0       100.82     LegendNANA
07:00 16.1 8.3 60 0.0       100.84     LegendNANA
08:00 18.9 10.4 58 0.0       100.83     LegendNANA
09:00 21.6 8.2 42 0.0       100.85     LegendNANA
10:00 22.0 7.4 39 0.0       100.86     LegendNANA
11:00 23.4 9.7 42 0.0       100.81 25   LegendNANA
12:00 23.8 8.3 37 0.0       100.76     LegendNANA
13:00 24.3 8.4 36 0.0       100.67 25   LegendNANA
14:00 24.2 5.6 30 0.0       100.62     LegendNANA
15:00 24.2 4.4 28 0.0       100.57     LegendNANA
16:00 23.4 3.6 27 0.0       100.55     LegendNANA
17:00 23.5 3.2 27 0.0       100.51     LegendNANA
18:00 23.1 2.8 26 0.0       100.48     LegendNANA
19:00 22.0 10.7 49 0.0       100.50     LegendNANA
20:00 20.8 10.8 53 0.0       100.50     LegendNANA
21:00 20.5 10.3 52 0.0       100.51     LegendNANA
22:00 20.0 10.4 54 0.0       100.49     LegendNANA
23:00 20.4 11.9 58 0.0       100.49     LegendNANA

Notes on Data Quality.

Legend

  • E = Estimated
  • M = Missing
  • NA = Not Available*
  • [empty] = Indicates an unobserved value
Date modified: